Wilmington, NC

2:46 AM EST on December 16, 2017 (GMT -0500)
Wilmington International

Weather History for KILM - February, 2014

Change the Weather History Date:

Monday, February 3, 2014

  Actual Average Record
Temperature  
Mean Temperature 60 °F 47 °F  
Max Temperature 72 °F 58 °F 82 °F (1989)
Min Temperature 48 °F 37 °F 13 °F (1917)
Degree Days  
Heating Degree Days 5 18  
Month to date heating degree days 34 54  
Since 1 July heating degree days 1508 1529  
Cooling Degree Days 0 0  
Month to date cooling degree days 0 0  
Year to date cooling degree days 3 2  
Growing Degree Days 11 (Base 50)    
Moisture  
Dew Point 57 °F    
Average Humidity 81    
Maximum Humidity 93    
Minimum Humidity 68    
Precipitation  
Precipitation 0.00 in 0.13 in 3.37 in (1998)
Month to date precipitation 0.01 0.38  
Year to date precipitation 2.78 4.14  
Snow  
Snow 0.00 in 0.00 in 3.00 in (1951)
Month to date snowfall 0.0 0.0  
Since 1 July snowfall 1.0 1.2  
Snow Depth 0.00 in    
Sea Level Pressure  
Sea Level Pressure 30.04 in    
Wind  
Wind Speed 10 mph (SW)    
Max Wind Speed 24 mph    
Max Gust Speed 33 mph    
Visibility 10 miles    
Events      
T = Trace of Precipitation, MM = Missing Value Source: NWS Daily Summary

Daily Weather History Graph

Daily Weather History Graph

Search for Another Location

Airport or City:

Trip Planner

Search our weather history database for the weather conditions in past years. The results will help you decide how hot, cold, wet, or windy it might be!

Date:

Astronomy

Feb. 03, 2014 Rise Set
Actual Time 7:07 AM EST 5:43 PM EST
Civil Twilight 6:41 AM EST 6:09 PM EST
Nautical Twilight 6:11 AM EST 6:39 PM EST
Astronomical Twilight 5:41 AM EST 7:09 PM EST
Moon 9:22 AM EST (2/3) 10:16 PM EST (2/3)
Length of Visible Light 11h 28m
Length of Day
10h 36m
Waxing Crescent, 19% of the Moon is Illuminated
Feb 3
Waxing Crescent
Feb 6
First Quarter
Feb 14
Full
Feb 22
Last Quarter
Mar 1
New

Hourly Weather History & Observations

Time (EST) Temp. Dew Point Humidity Pressure Visibility Wind Dir Wind Speed Gust Speed Precip Events Conditions
12:53 AM 55.0 °F 50.0 °F 83% 30.06 in 10.0 mi SSW 5.8 mph - N/A   Clear
1:53 AM 55.0 °F 51.1 °F 86% 30.04 in 10.0 mi SSW 3.5 mph - N/A   Clear
2:53 AM 55.0 °F 52.0 °F 89% 30.03 in 10.0 mi South 3.5 mph - N/A   Clear
3:20 AM 51.8 °F 50.0 °F 94% 30.02 in 2.5 mi Calm Calm - N/A   Clear
3:28 AM 53.6 °F 51.8 °F 94% 30.02 in 5.0 mi South 3.5 mph - N/A   Clear
3:53 AM 55.0 °F 53.1 °F 93% 30.02 in 10.0 mi South 3.5 mph - N/A   Clear
4:53 AM 62.1 °F 57.9 °F 86% 30.00 in 10.0 mi South 9.2 mph - N/A   Clear
5:53 AM 63.0 °F 59.0 °F 87% 30.00 in 10.0 mi South 10.4 mph - N/A   Overcast
6:53 AM 64.9 °F 61.0 °F 87% 30.00 in 10.0 mi SSW 10.4 mph - N/A   Mostly Cloudy
7:17 AM 64.4 °F 62.6 °F 94% 30.01 in 10.0 mi SSW 9.2 mph - N/A   Mostly Cloudy
7:33 AM 66.2 °F 62.6 °F 88% 30.02 in 10.0 mi SSW 11.5 mph - N/A   Overcast
7:53 AM 66.0 °F 63.0 °F 90% 30.02 in 8.0 mi SW 9.2 mph - N/A   Overcast
8:04 AM 66.2 °F 62.6 °F 88% 30.02 in 6.0 mi SSW 9.2 mph 17.3 mph N/A   Overcast
8:53 AM 66.9 °F 64.0 °F 90% 30.03 in 10.0 mi SSW 12.7 mph 20.7 mph 0.01 in   Overcast
9:17 AM 68.0 °F 64.4 °F 88% 30.03 in 10.0 mi SSW 13.8 mph 24.2 mph N/A   Overcast
9:53 AM 71.1 °F 64.9 °F 81% 30.01 in 10.0 mi SSW 13.8 mph 31.1 mph N/A   Overcast
10:53 AM 71.1 °F 66.0 °F 84% 30.01 in 10.0 mi SW 16.1 mph 28.8 mph 0.01 in   Overcast
11:06 AM 71.6 °F 66.2 °F 83% 30.02 in 10.0 mi SW 19.6 mph 33.4 mph N/A   Overcast
11:33 AM 69.8 °F 64.4 °F 83% 30.01 in 10.0 mi SW 12.7 mph 26.5 mph N/A   Overcast
11:53 AM 70.0 °F 64.9 °F 84% 30.00 in 10.0 mi SW 17.3 mph 25.3 mph N/A   Overcast
12:01 PM 69.8 °F 64.4 °F 83% 30.00 in 10.0 mi SW 18.4 mph 26.5 mph N/A   Overcast
12:05 PM 69.8 °F 64.4 °F 83% 29.99 in 10.0 mi SSW 17.3 mph 26.5 mph N/A   Overcast
12:15 PM 69.8 °F 64.4 °F 83% 29.99 in 10.0 mi SW 18.4 mph 27.6 mph N/A   Overcast
12:53 PM 70.0 °F 64.0 °F 81% 29.98 in 10.0 mi SW 17.3 mph 23.0 mph N/A   Overcast
1:53 PM 71.1 °F 63.0 °F 75% 29.97 in 10.0 mi SSW 11.5 mph - N/A   Overcast
2:53 PM 71.1 °F 62.1 °F 73% 29.96 in 10.0 mi SSW 9.2 mph - N/A   Overcast
3:53 PM 71.1 °F 61.0 °F 70% 29.97 in 10.0 mi SW 10.4 mph - N/A   Overcast
4:53 PM 71.1 °F 61.0 °F 70% 29.99 in 10.0 mi SW 5.8 mph - N/A   Scattered Clouds
5:53 PM 66.9 °F 61.0 °F 81% 30.01 in 10.0 mi Calm Calm - N/A   Overcast
6:53 PM 64.9 °F 60.1 °F 84% 30.06 in 10.0 mi North 18.4 mph 25.3 mph N/A   Overcast
7:10 PM 60.8 °F 51.8 °F 72% 30.08 in 10.0 mi North 18.4 mph 27.6 mph N/A   Overcast
7:19 PM 57.2 °F 51.8 °F 82% 30.10 in 10.0 mi North 10.4 mph 24.2 mph N/A   Overcast
7:53 PM 54.0 °F 48.0 °F 80% 30.12 in 10.0 mi NNE 10.4 mph 20.7 mph N/A   Mostly Cloudy
8:53 PM 52.0 °F 46.0 °F 80% 30.15 in 10.0 mi NNE 12.7 mph - N/A   Mostly Cloudy
9:38 PM 51.8 °F 44.6 °F 76% 30.18 in 10.0 mi North 10.4 mph - N/A   Overcast
9:53 PM 52.0 °F 44.1 °F 74% 30.19 in 10.0 mi North 10.4 mph - N/A   Overcast
10:01 PM 51.8 °F 42.8 °F 71% 30.19 in 10.0 mi NNE 9.2 mph - N/A   Overcast
10:53 PM 50.0 °F 41.0 °F 71% 30.20 in 10.0 mi NNE 12.7 mph - N/A   Overcast
11:53 PM 48.0 °F 39.9 °F 74% 30.22 in 10.0 mi NNE 11.5 mph - N/A   Overcast